Zhou Enlai (43156 NORAD) Tracking and Keplerian Element Data

This shows tracking and keplerian element data for the satellite.

Feedback or suggestion? Click here.




ElementValue
Catalog43156
NameZhou Enlai
Epoch Orbit4537
Epoch Day319.89024378
Epoch Year2018
RAAN31.6338
Inclination97.5165
Eccentricity0.0014544
Argument of Perigee346.6112
Mean Anonmoly125.9657
Mean Motion15.10281878
Decay Rate1.2E-05
L11 43156U 18008B 18319.89024378 .00001200 00000-0 77028-4 0 9990
L22 43156 97.5165 31.6338 0014544 346.6112 125.9657 15.10281878 45374

Live tracking and technical data element details for Zhou Enlai (NORAD 43156). Zhou Enlai can be tracked NOW for your location showing map with azimuth and elevation plus other details from your city location.

Track the satellite on the map from your city or location and see movement details for azimuth, elevation, latitude, longitude, range, height, and movement on the map or in text.







IsCatalogInMostPopularTable: catalog: 43156, numindb: 118
Update: records affected: 1



GetName: 43156 Zhou Enlai

Hit Count: updated at: Mon, 19 Nov 2018 14:19:30 GMT